www.pogodaiklimat.ru

Погода и климат >> Архив погоды >> Украина >> Винница


АРХИВ ПОГОДЫ в Виннице

Время (UTC), дата Ветер
(напр.,м/с)
 
Видим.   Явления Облачность Т
(С)
Тd
(С)
f
(%)
Тe
(С)
Тes
(С)
Комфортность P
(гПа)
Po
(гПа)
Тmin
(С)
Tmax
(С)
R
(мм)
R24
(мм)
S
(см)
18 10.07 СВ 2 13 км {гроза} 9/4 600 м
[Cb cap Ac trans]
+20.7 +15.7 73 +24 +24 комфорт 1013.6 979.5 +26.7
21 10.07 ЮВ 2 13 км {ливн. осадки} 10/4 600 м
[Cb cap Ac und]
+18.2 +15.5 84 +19 +19 тепло 1014.0 979.6
00 11.07 штиль 0 13 км {ливн. осадки} 10/4 600 м
[Cb cap Ac und]
+16.9 +15.7 93 +17 +17 тепло 1013.3 978.7
03 11.07 СВ 2 6000 м слабый ливневой дождь 10/8 500 м
[Cb cap Ac und]
+16.3 +15.6 96 +16 +16 по сезону 1013.7 979.1
06 11.07 штиль 0 6000 м слабый ливневой дождь 10/10 240 м
[Cb cap]
+16.5 +15.5 94 +16 +16 прохладно 1013.9 979.3 +16.2 10
09 11.07 штиль 0 13 км {ливн. осадки} 9/3 300 м
[Cb cap Ac trans]
+19.4 +15.9 80 +21 +29 комфорт 1013.7 979.4
12 11.07 С 5 13 км в посл. час ливневой дождь 8/6 660 м
[Cb cap Ac trans]
+19.9 +18.0 89 +23 +25 комфорт 1013.3 979.1
15 11.07 СВ 4 13 км 8/3 600 м
[Sc Ac trans]
+21.6 +17.0 75 +26 +27 душно 1012.0 978.0
18 11.07 СВ 2 13 км 3/3 600 м
[Sc]
+20.3 +17.0 81 +24 +24 комфорт 1012.8 978.7 +22.8 2
21 11.07 СВ 2 13 км ясно +16.7 +15.5 93 +17 +17 по сезону 1014.2 979.6
00 12.07 СВ 2 9000 м дымка 3/0
[Ac trans]
+15.6 +14.7 94 +15 +15 по сезону 1014.1 979.4
03 12.07 штиль 0 1500 м в посл. час туман 3/0
[Ci fib]
+14.5 +14.1 97 +14 +14 прохладно 1014.8 979.9
06 12.07 СВ 2 13 км {туман} 3/0
[Ci fib]
+20.0 +15.4 75 +23 +30 комфорт 1014.4 980.2 +14.2
09 12.07 СВ 2 13 км 6/6 1000 м
[Cu med, cong]
+22.9 +18.4 76 +29 +35 очень
душно
1013.5 979.7
12 12.07 штиль 0 13 км 8/8 1000 м
[Cu med, cong]
+24.8 +19.9 74 +30 +34 душно 1012.0 978.4
15 12.07 штиль 0 13 км 4/4 1000 м
[Cu med, cong]
+26.3 +19.2 65 +32 +35 очень
душно
1011.1 977.7
18 12.07 штиль 0 13 км 8/4 1000 м
[Sc Ac trans]
+24.0 +17.0 65 +28 +28 душно 1011.9 978.2 +27.2
21 12.07 З 2 13 км {ливн. осадки} 6/3 1000 м
[Sc Ac trans]
+19.8 +17.5 87 +23 +23 комфорт 1012.8 978.6
00 13.07 З 2 13 км {ливн. осадки} 3/0
[Ac trans]
+17.6 +16.6 94 +18 +18 тепло 1012.2 977.8
03 13.07 З 2 6000 м дымка 3/0
[Ac trans]
+16.5 +16.0 97 +17 +17 по сезону 1012.3 977.7
06 13.07 СЗ 3 13 км 3/3 600 м
[Cu hum]
+20.8 +17.2 80 +25 +29 комфорт 1012.0 978.0 +16.1 0.0
09 13.07 СЗ 3 13 км 5/3 1500 м
[Cu hum Ci fib]
+23.7 +14.9 58 +27 +36 жарко 1011.8 978.1
12 13.07 З 4 13 км 8/3 1500 м
[Cu med, cong Ci fib]
+25.4 +13.9 49 +28 +34 жарко 1010.8 977.3
15 13.07 З 5 13 км 5/3 1500 м
[Cu hum Ci fib]
+25.4 +13.0 46 +27 +29 жарко 1010.1 976.6
18 13.07 З 3 13 км 3/3 600 м
[Sc]
+21.4 +15.6 70 +25 +25 комфорт 1011.3 977.0 +26.1
21 13.07 З 3 13 км ясно +17.5 +13.8 79 +18 +18 по сезону 1012.2 977.7
00 14.07 З 3 13 км ясно +15.0 +13.4 90 +14 +14 по сезону 1012.0 977.2
03 14.07 штиль 0 13 км 3/0
[Ac trans]
+14.5 +12.8 90 +14 +14 прохладно 1012.0 977.2
06 14.07 З 3 13 км 8/3 1000 м
[Sc Ac trans]
+18.1 +12.5 70 +18 +21 по сезону 1011.6 977.2 +14.2
09 14.07 З 5 13 км 8/4 1000 м
[Cu med, cong Ci fib]
+21.1 +13.8 63 +24 +28 комфорт 1010.2 976.2
12 14.07 З 5 13 км 10/4 600 м
[Cb cap Ac und]
+21.9 +17.9 78 +27 +28 душно 1009.0 975.2
15 14.07 З 4 13 км {гроза, ливн. осадки} 8/4 600 м
[Cb cap Ac trans]
+20.5 +16.2 76 +24 +25 комфорт 1008.1 974.1
18 14.07 З 3 13 км {гроза, ливн. осадки} 6/3 1000 м
[Sc Ac trans]
+18.7 +15.0 79 +20 +20 по сезону 1008.2 974.0 +22.6 0.8
21 14.07 З 3 13 км 4/3 1000 м
[Sc Ac trans]
+17.1 +15.1 88 +17 +17 по сезону 1008.8 974.4
00 15.07 З 2 13 км 3/0
[Ac trans]
+14.9 +14.4 97 +15 +15 по сезону 1008.6 973.9
03 15.07 З 3 13 км 6/3 600 м
[Sc Ac trans]
+14.7 +14.0 96 +14 +14 прохладно 1008.3 973.6
06 15.07 СЗ 4 13 км 9/5 540 м
[Cb cap Ac trans]
+16.6 +15.8 95 +16 +17 прохладно 1008.2 973.8 +13.6
09 15.07 штиль 0 13 км в посл. час ливневой дождь 8/4 600 м
[Cb cap Ac trans]
+18.2 +16.0 87 +19 +27 прохладно 1007.6 973.4
12 15.07 штиль 0 13 км {ливн. осадки} 8/4 600 м
[Cb cap Ac trans]
+20.4 +15.3 73 +23 +30 комфорт 1006.9 973.0
15 15.07 ЮЗ 4 10 км слабый ливневой дождь 8/4 600 м
[Cb cap Ac trans]
+20.7 +15.3 71 +24 +25 комфорт 1006.4 972.5
18 15.07 З 3 13 км {ливн. осадки} 8/3 600 м
[Sc Ac trans]
+19.1 +15.6 80 +21 +21 комфорт 1006.5 972.4 +23.1 2
21 15.07 З 3 13 км 4/0
[Ac trans]
+16.1 +14.5 90 +16 +16 по сезону 1007.2 972.7
00 16.07 З 2 13 км 9/0
[Ac trans]
+15.2 +14.3 94 +15 +15 по сезону 1007.3 972.7
03 16.07 СЗ 3 13 км слабый ливневой дождь 8/3 600 м
[Cb cap Ac trans]
+15.0 +14.5 97 +14 +14 прохладно 1007.4 972.8
06 16.07 СЗ 3 13 км {ливн. осадки} 9/4 600 м
[Sc Ac trans]
+16.8 +14.9 89 +17 +18 по сезону 1007.2 972.8 +14.8 0.4
09 16.07 СЗ 3 13 км 8/4 600 м
[Sc Ac trans]
+19.5 +15.4 77 +22 +26 комфорт 1006.5 972.5
12 16.07 СЗ 2 13 км 8/5 960 м
[Cu med, cong Ac trans]
+23.0 +14.6 59 +27 +31 душно 1005.3 971.7
15 16.07 З 3 13 км гроза без осадков 8/4 600 м
[Cb cap Ac trans]
+20.4 +15.0 71 +23 +25 комфорт 1005.0 971.1
18 16.07 С 3 13 км в посл. час гроза 8/3 600 м
[Cb cap Ac trans]
+18.4 +14.0 76 +19 +19 по сезону 1005.2 971.1 +24.7
21 16.07 З 2 13 км 6/0
[Ac trans]
+17.3 +15.2 87 +18 +18 по сезону 1005.1 970.9
00 17.07 СЗ 2 13 км 6/0
[Ac trans]
+16.2 +15.0 93 +16 +16 по сезону 1004.5 970.2
03 17.07 З 2 13 км 4/0
[Ac trans]
+15.6 +14.7 94 +15 +16 по сезону 1004.1 969.7
06 17.07 СЗ 3 13 км 5/0
[Ac trans Ci fib]
+19.5 +16.0 80 +22 +26 комфорт 1003.4 969.5 +15.5
09 17.07 З 4 13 км 9/9 720 м
[Cb cap]
+21.9 +15.2 66 +25 +27 комфорт 1002.4 968.8
12 17.07 С 4 13 км в посл. час ливневой дождь 8/4 600 м
[Cb cap Ac trans]
+22.4 +15.4 65 +26 +30 жарко 1001.8 968.3

 

Местоположение метеостанции Винница (Винницкая область, Украина): широта 49.23 долгота 28.60 высота над уровнем моря 298 м.

В архиве по умолчанию представлена погода в Виннице за последнюю неделю. Архивные данные за месяц целиком и за предыдущие месяцы, начиная с января 2011 года, Вы можете получить, выбрав интересующий диапазон дат из раскрывающегося списка и нажав кнопку "Ввод!".


*Определитесь, кто Вы:
робот инопланетянин человек

Внимание! Время в таблицах - всемирное. Для получения местного времени необходимо прибавить поправку, которая в Виннице равна 2 ч.

Смотрите также архив погоды в соседних городах и на ближайших метеорологических станциях:

Погода в Жмеринке (Винницкая область, Украина) (42 км)
Погода в Белополе (Винницкая область, Украина) (70 км)
Погода в Гайсине (Винницкая область, Украина) (75 км)
Погода в Хмельнике (Винницкая область, Украина) (76 км)
Погода в Могилев-Подольском (Винницкая область, Украина) (105 км)
Погода в Новой Ушице (Хмельницкая область, Украина) (106 км)
Погода в Жашкове (Черкасская область, Украина) (109 км)
Погода в Житомире (Житомирская область, Украина) (112 км)
Погода в Новоднестровске (Черновицкая область, Украина) (112 км)
Погода в Сороках (Молдова) (117 км)

Пояснения к столбцам:

Ветер - указаны скорость ветра в м/с - средняя за 10 мин, порывы в срок и между сроками (в фигурных скобках) и направление, откуда дует ветер: С - северный, СВ - северо-восточный, В - восточный, ЮВ - юго-восточный, Ю - южный, ЮЗ - юго-западный, З - западный, СЗ - северо-западный.
Видимость - горизонтальная дальность видимости в метрах или километрах. При видимости от 1 до 10 км при отсутствии осадков обычно наблюдается дымка, при ухудшении видимости до 1 км и менее - туман. В сухую погоду видимость может ухудшаться дымом, пылью или мглою.
Явления - указаны атмосферные явления, наблюдавшиеся в срок или в последний час перед сроком; фигурными скобками обозначены явления, наблюдавшиеся между сроками (за 1-3 часа до срока); квадратными скобками обозначены град или гололедные отложения с указанием их диаметра в мм.
Облачность - указаны через наклонную черту общая и нижняя облачность в баллах и высота нижней границы облаков в метрах; квадратными скобками обозначены формы облаков: Ci - перистые, Cs - перисто-слоистые, Cc - перисто-кучевые, Ac - высококучевые, As - высокослоистые, Sc - слоисто-кучевые, Ns - слоисто-дождевые, Cu - кучевые, Cb - кучево-дождевые. Подробнее классификацию облаков см. в Атласе облаков (PDF).
T - Температура воздуха - температура, измеренная на высоте 2 м над землей.
Td - Температура точки росы - температура, при понижении до которой содержащийся в воздухе водяной пар достигнет насыщения.
f - Относительная влажность воздуха - влажноcть воздуха, измеренная на высоте 2 м над землей.
Te - Эффективная температура - температура, которую ощущает одетый по сезону человек в тени. Характеристика душности погоды. При расчете учитывается влияние влажности воздуха и скорости ветра на теплоощущения человека.
Tes - Эффективная температура на солнце - температура, которую ощущает человек, с поправкой на солнечный нагрев. Характеристика знойности погоды. Зависит от высоты солнца над горизонтом, облачности и скорости ветра. Ночью, в пасмурную погоду, а также при ветре 12 м/с и более поправка равна нулю.
P - Атмосферное давление - приведенное к уровню моря атмосферное давление.
Po - Атмосферное давление - измеренное на уровне метеостанции атмосферное давление.
Tmin - Минимальная температура - минимум температуры воздуха на высоте 2 м над землей.
Tmax - Максимальная температура - максимум температуры воздуха на высоте 2 м над землей.
R - Количество осадков - Количество выпавших осадков за период времени, мм. При наведении курсора мыши на число - период времени, за который выпало указанное количество осадков.
R24 - Количество осадков - Количество выпавших осадков за 24 часа, мм.
S - Снежный покров - Высота снежного покрова, см. При наведении курсора мыши на число - состояние снежного покрова и степень покрытия местности в баллах.